Printer-friendly version

IAU Minor Planet Center

Minor Planet Center

MPEC 2007-V32 : 2007 VU6

The following Minor Planet Electronic Circular may be linked-to from your own Web pages, but must not otherwise be redistributed electronically.


Read MPEC 2007-V31 Read MPEC 2007-V33


M.P.E.C. 2007-V32                                Issued 2007 Nov. 5, 16:57 UT

     The Minor Planet Electronic Circulars contain information on unusual
         minor planets and routine data on comets.  They are published
   on behalf of Commission 20 of the International Astronomical Union by the
          Minor Planet Center, Smithsonian Astrophysical Observatory,
                          Cambridge, MA 02138, U.S.A.

             Prepared using the Tamkin Foundation Computer Network

                              MPC@CFA.HARVARD.EDU
          URL http://www.cfa.harvard.edu/iau/mpc.html  ISSN 1523-6714

                                   2007 VU6

Observations:
     K07V06U* C2007 11 03.26931 03 04 47.24 +18 58 54.1          20.2 V EV032G96
     K07V06U  C2007 11 03.28076 03 04 42.88 +18 58 23.0          20.1 V EV032G96
     K07V06U  C2007 11 03.29212 03 04 38.53 +18 57 52.3          21.4 V EV032G96
     K07V06U  C2007 11 03.30375 03 04 34.17 +18 57 20.5          20.4 V EV032G96
     K07V06U  C2007 11 03.34602 03 04 18.08 +18 55 21.2          20.7 V EV032G96
     K07V06U  C2007 11 03.34831 03 04 17.18 +18 55 14.2          21.1 V EV032G96
     K07V06U  C2007 11 03.35059 03 04 16.35 +18 55 07.6          21.2 V EV032G96
     K07V06U  C2007 11 03.35291 03 04 15.49 +18 55 01.4          20.7 V EV032G96
     K07V06U  C2007 11 04.17469 03 00 09.57 +18 16 47.6          21.1 V EV032G96
     K07V06U  C2007 11 04.17902 03 00 08.13 +18 16 36.6          20.7 V EV032G96
     K07V06U  C2007 11 04.18454 03 00 06.19 +18 16 22.9          21.4 V EV032G96
     K07V06U  C2007 11 04.18884 03 00 04.64 +18 16 11.2          21.0 V EV032G96
     K07V06U  C2007 11 04.34791 02 59 06.93 +18 09 07.0          20.6 V EV032G96
     K07V06U  C2007 11 04.35300 02 59 05.02 +18 08 52.3          20.9 V EV032G96
     K07V06U  C2007 11 04.35814 02 59 03.15 +18 08 37.7          20.7 V EV032G96
     K07V06U  C2007 11 04.36470 02 59 00.78 +18 08 19.5          20.5 V EV032G96
     K07V06U tC2007 11 05.24986 02 54 43.26 +17 28 20.2          20.9 V EV032291
     K07V06U tC2007 11 05.25373 02 54 41.97 +17 28 10.4          21.1 V EV032291
     K07V06U  C2007 11 05.25708 02 54 40.64 +17 28 00.2          20.2 V EV032G96
     K07V06U tC2007 11 05.25760 02 54 40.59 +17 28 00.1          21.0 V EV032291
     K07V06U  C2007 11 05.25778 02 54 40.39 +17 27 58.3          20.4 V EV032G96
     K07V06U  C2007 11 05.25849 02 54 40.14 +17 27 56.4          20.2 V EV032G96
     K07V06U  C2007 11 05.25921 02 54 39.88 +17 27 54.6          20.4 V EV032G96
     K07V06U  C2007 11 05.35944 02 54 04.53 +17 23 25.4          20.9 V EV032G96
     K07V06U  C2007 11 05.36196 02 54 03.63 +17 23 18.5          20.6 V EV032G96
     K07V06U  C2007 11 05.36444 02 54 02.77 +17 23 11.8          20.5 V EV032G96
     K07V06U  C2007 11 05.36693 02 54 01.90 +17 23 04.7          20.3 V EV032G96
     K07V06U  C2007 11 05.43124 02 53 39.91 +17 20 03.4          20.6 V EV032G96
     K07V06U  C2007 11 05.43177 02 53 39.73 +17 20 01.9          20.7 V EV032G96
     K07V06U  C2007 11 05.43230 02 53 39.58 +17 20 00.4          20.6 V EV032G96
     K07V06U  C2007 11 05.43284 02 53 39.37 +17 19 59.0          20.4 V EV032G96

Observer details:
291 LPL/Spacewatch II.  Observer T. H. Bressi.  1.8-m f/2.7 reflector + CCD.
G96 Mt. Lemmon Survey.  Observers A. Boattini, A. R. Gibbs.  Measurers
    E. C. Beshore, A. Boattini, G. J. Garradd, A. R. Gibbs, A. D. Grauer,
    R. E. Hill, R. A. Kowalski, S. M. Larson, R. H. McNaught.  1.5-m reflector
    + CCD.

Orbital elements:
2007 VU6                                                 Earth MOID = 0.0119 AU
Epoch 2007 Oct. 27.0 TT = JDT 2454400.5                 MPC
M 129.49742              (2000.0)            P               Q
n   1.02424542     Peri.   32.84427     -0.22058586     +0.97525744
a   0.9746904      Node   224.41717     -0.89933931     -0.20918474
e   0.0911605      Incl.    1.19991     -0.37753237     -0.07151689
P   0.96           H   26.5           G   0.15           U   7
Residuals in seconds of arc
071103 G96  0.1+  0.0     071104 G96  0.2-  0.5-    071105 G96  0.1+  0.0
071103 G96  0.2-  0.1+    071104 G96  0.5+  0.1+    071105 G96  0.2+  0.2-
071103 G96  0.7-  0.5+    071104 G96  0.2-  0.3-    071105 G96  0.1-  0.1-
071103 G96  0.2+  0.7+    071104 G96  0.2-  0.5-    071105 G96  0.0   0.0
071103 G96  0.1+  0.1+    071104 G96  0.0   0.1-    071105 G96  0.0   0.2-
071103 G96  0.4-  0.4-    071105 291  0.7-  0.2+    071105 G96  0.0   0.3-
071103 G96  0.1+  0.5-    071105 291  0.3+  0.4+    071105 G96  0.1-  0.3-
071103 G96  0.4+  0.0     071105 G96  0.2+  0.0     071105 G96  0.3+  0.3-
071104 G96  0.3-  0.1-    071105 291  0.0   0.1+    071105 G96  0.1-  0.1-
071104 G96  0.6+  0.1-    071105 G96  0.2+  0.1-
071104 G96  0.4+  0.2+    071105 G96  0.2+  0.1-

Ephemeris:
2007 VU6                 a,e,i = 0.97, 0.09, 1                   q = 0.8858
Date    TT    R. A. (2000) Decl.     Delta      r     Elong.  Phase     V
2007 11 06    02 51.06   +16 55.9    0.0542   1.046   177.6     2.2    20.5
2007 11 07    02 46.43   +16 12.7    0.0552   1.046   179.9     0.1    20.4
2007 11 08    02 42.02   +15 30.8    0.0564   1.047   177.8     2.1    20.6
2007 11 09    02 37.82   +14 50.4    0.0576   1.048   175.6     4.2    20.8
2007 11 10    02 33.83   +14 11.5    0.0588   1.049   173.5     6.2    20.9
2007 11 11    02 30.05   +13 34.1    0.0601   1.050   171.4     8.1    21.1
2007 11 12    02 26.48   +12 58.4    0.0615   1.050   169.3    10.1    21.2
2007 11 13    02 23.12   +12 24.4    0.0629   1.051   167.3    11.9    21.3
2007 11 14    02 19.97   +11 52.0    0.0644   1.052   165.4    13.7    21.4
2007 11 15    02 17.01   +11 21.3    0.0659   1.053   163.5    15.4    21.6
2007 11 16    02 14.25   +10 52.3    0.0675   1.053   161.7    17.1    21.7
2007 11 17    02 11.67   +10 24.9    0.0691   1.054   159.9    18.8    21.8
2007 11 18    02 09.29   +09 59.2    0.0708   1.055   158.2    20.3    21.9
2007 11 19    02 07.08   +09 35.0    0.0725   1.055   156.6    21.9    22.0
2007 11 20    02 05.04   +09 12.4    0.0742   1.056   154.9    23.4    22.1
2007 11 21    02 03.16   +08 51.3    0.0760   1.056   153.4    24.8    22.2
2007 11 22    02 01.45   +08 31.6    0.0778   1.057   151.8    26.2    22.3
2007 11 23    01 59.88   +08 13.3    0.0797   1.058   150.4    27.5    22.4
2007 11 24    01 58.46   +07 56.3    0.0816   1.058   148.9    28.8    22.4
2007 11 25    01 57.18   +07 40.6    0.0835   1.059   147.5    30.1    22.5
2007 11 26    01 56.02   +07 26.2    0.0854   1.059   146.1    31.3    22.6

Timothy B. Spahr             (C) Copyright 2007 MPC           M.P.E.C. 2007-V32

Read MPEC 2007-V31 Read MPEC 2007-V33


Our Web policy. Index to the CBAT/MPC/ICQ pages.


Valid HTML 4.01!